Time,TemperatureF,DewpointF,PressureIn,WindDirection,WindDirectionDegrees,WindSpeedMPH,WindSpeedGustMPH,Humidity,HourlyPrecipIn,Conditions,Clouds,dailyrainin,SoftwareType,DateUTC
2013-09-05 00:02:00,65.0,56.1,30.03,SSE,155,5.0,8.0,73,0.00,,,0.00,Wunderground v.1.15,2013-09-05 07:02:00,
2013-09-05 00:08:00,65.0,56.5,30.03,SSE,161,6.0,8.0,74,0.00,,,0.00,Wunderground v.1.15,2013-09-05 07:08:00,
2013-09-05 00:14:00,65.2,56.7,30.03,SE,144,2.0,6.0,74,0.00,,,0.00,Wunderground v.1.15,2013-09-05 07:14:00,
2013-09-05 00:19:00,65.3,56.8,30.03,SSE,155,3.0,9.0,74,0.00,,,0.00,Wunderground v.1.15,2013-09-05 07:19:00,
2013-09-05 00:24:00,65.3,56.8,30.03,SE,146,3.0,5.0,74,0.00,,,0.00,Wunderground v.1.15,2013-09-05 07:24:00,
2013-09-05 00:30:00,65.2,56.7,30.04,SE,144,3.0,4.0,74,0.00,,,0.00,Wunderground v.1.15,2013-09-05 07:30:00,
2013-09-05 00:35:00,65.1,56.6,30.04,SE,142,3.0,4.0,74,0.00,,,0.00,Wunderground v.1.15,2013-09-05 07:35:00,
2013-09-05 00:40:00,64.9,56.4,30.04,SSE,156,11.0,11.0,74,0.00,,,0.00,Wunderground v.1.15,2013-09-05 07:40:00,
2013-09-05 00:45:00,64.9,56.4,30.04,SSE,157,3.0,11.0,74,0.00,,,0.00,Wunderground v.1.15,2013-09-05 07:45:00,
2013-09-05 00:51:00,64.7,56.6,30.04,SSE,153,1.0,5.0,75,0.00,,,0.00,Wunderground v.1.15,2013-09-05 07:51:00,
2013-09-05 00:56:00,64.7,56.6,30.03,SSE,148,8.0,9.0,75,0.00,,,0.00,Wunderground v.1.15,2013-09-05 07:56:00,
2013-09-05 01:01:00,64.7,56.6,30.03,SSE,148,7.0,7.0,75,0.00,,,0.00,Wunderground v.1.15,2013-09-05 08:01:00,
2013-09-05 01:07:00,64.7,56.6,30.03,SSE,152,4.0,10.0,75,0.00,,,0.00,Wunderground v.1.15,2013-09-05 08:07:00,
2013-09-05 01:12:00,64.6,56.5,30.03,SSE,157,2.0,6.0,75,0.00,,,0.00,Wunderground v.1.15,2013-09-05 08:12:00,
2013-09-05 01:17:00,64.5,56.4,30.03,SSE,154,6.0,7.0,75,0.00,,,0.00,Wunderground v.1.15,2013-09-05 08:17:00,
2013-09-05 01:23:00,64.5,56.4,30.03,SSE,157,6.0,6.0,75,0.00,,,0.00,Wunderground v.1.15,2013-09-05 08:23:00,
2013-09-05 01:28:00,64.3,56.2,30.03,SSE,158,5.0,9.0,75,0.00,,,0.00,Wunderground v.1.15,2013-09-05 08:28:00,
2013-09-05 01:34:00,64.4,56.3,30.03,SSE,151,3.0,9.0,75,0.00,,,0.00,Wunderground v.1.15,2013-09-05 08:34:00,
2013-09-05 01:39:00,64.4,56.3,30.02,SE,145,5.0,9.0,75,0.00,,,0.00,Wunderground v.1.15,2013-09-05 08:39:00,
2013-09-05 01:44:00,64.5,56.4,30.02,SSE,153,10.0,10.0,75,0.00,,,0.00,Wunderground v.1.15,2013-09-05 08:44:00,
2013-09-05 01:49:00,64.5,56.4,30.02,SSE,152,5.0,10.0,75,0.00,,,0.00,Wunderground v.1.15,2013-09-05 08:49:00,
2013-09-05 01:54:00,64.4,56.3,30.02,SSE,153,10.0,10.0,75,0.00,,,0.00,Wunderground v.1.15,2013-09-05 08:54:00,
2013-09-05 02:00:00,64.3,56.2,30.02,SSE,164,4.0,4.0,75,0.00,,,0.00,Wunderground v.1.15,2013-09-05 09:00:00,
2013-09-05 02:05:00,64.2,56.1,30.02,SSE,153,11.0,11.0,75,0.00,,,0.00,Wunderground v.1.15,2013-09-05 09:05:00,
2013-09-05 02:10:00,64.1,56.0,30.02,SE,137,5.0,5.0,75,0.00,,,0.00,Wunderground v.1.15,2013-09-05 09:10:00,
2013-09-05 02:15:00,64.1,56.0,30.02,SE,145,0.0,11.0,75,0.00,,,0.00,Wunderground v.1.15,2013-09-05 09:15:00,
2013-09-05 02:20:00,64.0,55.9,30.02,SSE,153,6.0,10.0,75,0.00,,,0.00,Wunderground v.1.15,2013-09-05 09:20:00,
2013-09-05 02:25:00,64.0,55.9,30.02,SE,141,0.0,12.0,75,0.00,,,0.00,Wunderground v.1.15,2013-09-05 09:25:00,
2013-09-05 02:30:00,63.9,55.8,30.02,SE,141,3.0,4.0,75,0.00,,,0.00,Wunderground v.1.15,2013-09-05 09:30:00,
2013-09-05 02:35:00,63.8,56.1,30.03,SE,139,4.0,10.0,76,0.00,,,0.00,Wunderground v.1.15,2013-09-05 09:35:00,
2013-09-05 02:40:00,63.7,56.0,30.03,SE,134,6.0,6.0,76,0.00,,,0.00,Wunderground v.1.15,2013-09-05 09:40:00,
2013-09-05 02:45:00,63.6,55.9,30.03,SE,136,1.0,9.0,76,0.00,,,0.00,Wunderground v.1.15,2013-09-05 09:45:00,
2013-09-05 02:50:00,63.3,55.6,30.03,SE,143,3.0,6.0,76,0.00,,,0.00,Wunderground v.1.15,2013-09-05 09:50:00,
2013-09-05 02:55:00,63.2,55.9,30.03,South,170,6.0,10.0,77,0.00,,,0.00,Wunderground v.1.15,2013-09-05 09:55:00,
2013-09-05 03:00:00,63.2,55.9,30.03,SSE,150,3.0,5.0,77,0.00,,,0.00,Wunderground v.1.15,2013-09-05 10:00:00,
2013-09-05 03:05:00,63.3,56.0,30.03,SSE,163,1.0,12.0,77,0.00,,,0.00,Wunderground v.1.15,2013-09-05 10:05:00,
2013-09-05 03:10:00,63.3,56.0,30.03,SE,146,11.0,11.0,77,0.00,,,0.00,Wunderground v.1.15,2013-09-05 10:10:00,
2013-09-05 03:15:00,63.4,55.7,30.03,South,174,5.0,13.0,76,0.00,,,0.00,Wunderground v.1.15,2013-09-05 10:15:00,
2013-09-05 03:21:00,63.3,56.0,30.03,SSE,168,3.0,9.0,77,0.00,,,0.00,Wunderground v.1.15,2013-09-05 10:21:00,
2013-09-05 03:26:00,63.2,55.9,30.03,South,172,4.0,12.0,77,0.00,,,0.00,Wunderground v.1.15,2013-09-05 10:26:00,
2013-09-05 03:31:00,63.1,55.8,30.03,South,174,13.0,13.0,77,0.00,,,0.00,Wunderground v.1.15,2013-09-05 10:31:00,
2013-09-05 03:36:00,63.0,55.7,30.03,SSE,168,0.0,13.0,77,0.00,,,0.00,Wunderground v.1.15,2013-09-05 10:36:00,
2013-09-05 03:41:00,62.9,55.6,30.03,SSE,155,7.0,7.0,77,0.00,,,0.00,Wunderground v.1.15,2013-09-05 10:41:00,
2013-09-05 03:46:00,62.8,55.8,30.03,SSE,150,5.0,11.0,78,0.00,,,0.00,Wunderground v.1.15,2013-09-05 10:46:00,
2013-09-05 03:51:00,62.8,55.8,30.03,SSE,160,2.0,7.0,78,0.00,,,0.00,Wunderground v.1.15,2013-09-05 10:51:00,
2013-09-05 03:56:00,62.7,55.7,30.03,SSE,165,4.0,15.0,78,0.00,,,0.00,Wunderground v.1.15,2013-09-05 10:56:00,
2013-09-05 04:01:00,62.6,55.6,30.02,SSE,167,4.0,6.0,78,0.00,,,0.00,Wunderground v.1.15,2013-09-05 11:01:00,
2013-09-05 04:06:00,62.5,55.5,30.02,SSE,165,7.0,13.0,78,0.00,,,0.00,Wunderground v.1.15,2013-09-05 11:06:00,
2013-09-05 04:11:00,62.3,55.4,30.02,South,170,9.0,9.0,78,0.00,,,0.00,Wunderground v.1.15,2013-09-05 11:11:00,
2013-09-05 04:16:00,62.2,55.6,30.02,South,169,4.0,9.0,79,0.00,,,0.00,Wunderground v.1.15,2013-09-05 11:16:00,
2013-09-05 04:21:00,62.1,55.5,30.02,South,172,4.0,10.0,79,0.00,,,0.00,Wunderground v.1.15,2013-09-05 11:21:00,
2013-09-05 04:26:00,62.0,55.4,30.02,SSE,156,7.0,10.0,79,0.00,,,0.00,Wunderground v.1.15,2013-09-05 11:26:00,
2013-09-05 04:31:00,62.0,55.8,30.02,SSE,155,7.0,9.0,80,0.00,,,0.00,Wunderground v.1.15,2013-09-05 11:31:00,
2013-09-05 04:36:00,62.0,55.8,30.02,SSE,153,1.0,10.0,80,0.00,,,0.00,Wunderground v.1.15,2013-09-05 11:36:00,
2013-09-05 04:41:00,61.8,55.6,30.02,SSE,153,4.0,5.0,80,0.00,,,0.00,Wunderground v.1.15,2013-09-05 11:41:00,
2013-09-05 04:46:00,61.6,55.4,30.02,SSE,148,2.0,12.0,80,0.00,,,0.00,Wunderground v.1.15,2013-09-05 11:46:00,
2013-09-05 04:51:00,61.6,55.7,30.03,SSE,156,3.0,9.0,81,0.00,,,0.00,Wunderground v.1.15,2013-09-05 11:51:00,
2013-09-05 04:56:00,61.6,55.7,30.03,SSE,154,4.0,12.0,81,0.00,,,0.00,Wunderground v.1.15,2013-09-05 11:56:00,
2013-09-05 05:01:00,61.5,55.6,30.03,SSE,153,5.0,7.0,81,0.00,,,0.00,Wunderground v.1.15,2013-09-05 12:01:00,
2013-09-05 05:06:00,61.4,55.5,30.03,SSE,159,9.0,10.0,81,0.00,,,0.00,Wunderground v.1.15,2013-09-05 12:06:00,
2013-09-05 05:11:00,61.3,55.4,30.03,SSE,163,2.0,9.0,81,0.00,,,0.00,Wunderground v.1.15,2013-09-05 12:11:00,
2013-09-05 05:16:00,61.3,55.8,30.04,South,171,4.0,11.0,82,0.00,,,0.00,Wunderground v.1.15,2013-09-05 12:16:00,
2013-09-05 05:21:00,61.2,55.7,30.04,SSE,150,3.0,7.0,82,0.00,,,0.00,Wunderground v.1.15,2013-09-05 12:21:00,
2013-09-05 05:26:00,61.1,55.6,30.03,SSE,154,9.0,9.0,82,0.00,,,0.00,Wunderground v.1.15,2013-09-05 12:26:00,
2013-09-05 05:31:00,61.0,55.5,30.03,SSE,157,6.0,9.0,82,0.00,,,0.00,Wunderground v.1.15,2013-09-05 12:31:00,
2013-09-05 05:36:00,61.0,55.5,30.03,SSE,155,4.0,9.0,82,0.00,,,0.00,Wunderground v.1.15,2013-09-05 12:36:00,
2013-09-05 05:41:00,61.0,55.5,30.03,SSE,159,4.0,9.0,82,0.00,,,0.00,Wunderground v.1.15,2013-09-05 12:41:00,
2013-09-05 05:46:00,60.9,55.4,30.04,SSE,163,4.0,11.0,82,0.00,,,0.00,Wunderground v.1.15,2013-09-05 12:46:00,
2013-09-05 05:51:00,60.9,55.4,30.04,SSE,157,0.0,10.0,82,0.00,,,0.00,Wunderground v.1.15,2013-09-05 12:51:00,
2013-09-05 05:56:00,60.9,55.4,30.04,SSE,151,5.0,11.0,82,0.00,,,0.00,Wunderground v.1.15,2013-09-05 12:56:00,
2013-09-05 06:01:00,60.9,55.4,30.04,SSE,151,4.0,6.0,82,0.00,,,0.00,Wunderground v.1.15,2013-09-05 13:01:00,
2013-09-05 06:06:00,60.8,55.3,30.04,South,173,6.0,12.0,82,0.00,,,0.00,Wunderground v.1.15,2013-09-05 13:06:00,
2013-09-05 06:11:00,60.7,55.2,30.05,SSE,157,7.0,7.0,82,0.00,,,0.00,Wunderground v.1.15,2013-09-05 13:11:00,
2013-09-05 06:16:00,60.7,55.5,30.05,SSE,155,6.0,15.0,83,0.00,,,0.00,Wunderground v.1.15,2013-09-05 13:16:00,
2013-09-05 06:21:00,60.7,55.5,30.05,SSE,153,6.0,9.0,83,0.00,,,0.00,Wunderground v.1.15,2013-09-05 13:21:00,
2013-09-05 06:26:00,60.7,55.5,30.05,SSE,159,5.0,9.0,83,0.00,,,0.00,Wunderground v.1.15,2013-09-05 13:26:00,
2013-09-05 06:31:00,60.6,55.4,30.05,SSE,158,3.0,8.0,83,0.00,,,0.00,Wunderground v.1.15,2013-09-05 13:31:00,
2013-09-05 06:36:00,60.6,55.4,30.05,SSE,161,3.0,10.0,83,0.00,,,0.00,Wunderground v.1.15,2013-09-05 13:36:00,
2013-09-05 06:41:00,60.5,55.3,30.06,SSE,168,8.0,12.0,83,0.00,,,0.00,Wunderground v.1.15,2013-09-05 13:41:00,
2013-09-05 06:46:00,60.6,55.4,30.06,SSE,155,9.0,13.0,83,0.00,,,0.00,Wunderground v.1.15,2013-09-05 13:46:00,
2013-09-05 06:51:00,60.6,55.4,30.06,SSE,157,0.0,9.0,83,0.00,,,0.00,Wunderground v.1.15,2013-09-05 13:51:00,
2013-09-05 06:56:00,60.6,55.4,30.06,SSE,159,6.0,11.0,83,0.00,,,0.00,Wunderground v.1.15,2013-09-05 13:56:00,
2013-09-05 07:01:00,60.7,55.5,30.05,SSE,160,3.0,9.0,83,0.00,,,0.00,Wunderground v.1.15,2013-09-05 14:01:00,
2013-09-05 07:06:00,60.8,55.6,30.05,SSE,152,1.0,10.0,83,0.00,,,0.00,Wunderground v.1.15,2013-09-05 14:06:00,
2013-09-05 07:11:00,61.0,55.5,30.06,SSE,157,7.0,12.0,82,0.00,,,0.00,Wunderground v.1.15,2013-09-05 14:11:00,
2013-09-05 07:16:00,61.2,55.7,30.06,SSE,148,13.0,13.0,82,0.00,,,0.00,Wunderground v.1.15,2013-09-05 14:16:00,
2013-09-05 07:22:00,61.4,55.9,30.06,SSE,161,3.0,9.0,82,0.00,,,0.00,Wunderground v.1.15,2013-09-05 14:22:00,
2013-09-05 07:26:00,61.4,55.5,30.06,South,182,11.0,12.0,81,0.00,,,0.00,Wunderground v.1.15,2013-09-05 14:26:00,
2013-09-05 07:32:00,61.5,55.6,30.07,South,178,5.0,11.0,81,0.00,,,0.00,Wunderground v.1.15,2013-09-05 14:32:00,
2013-09-05 07:37:00,61.7,55.8,30.07,South,180,6.0,11.0,81,0.00,,,0.00,Wunderground v.1.15,2013-09-05 14:37:00,
2013-09-05 07:42:00,61.8,55.9,30.07,South,175,6.0,11.0,81,0.00,,,0.00,Wunderground v.1.15,2013-09-05 14:42:00,
2013-09-05 07:47:00,61.9,56.0,30.07,South,169,6.0,14.0,81,0.00,,,0.00,Wunderground v.1.15,2013-09-05 14:47:00,
2013-09-05 07:52:00,62.2,56.3,30.08,South,169,4.0,9.0,81,0.00,,,0.00,Wunderground v.1.15,2013-09-05 14:52:00,
2013-09-05 07:57:00,62.3,56.0,30.07,South,169,6.0,13.0,80,0.00,,,0.00,Wunderground v.1.15,2013-09-05 14:57:00,
2013-09-05 08:02:00,62.6,56.3,30.07,SSE,159,6.0,10.0,80,0.00,,,0.00,Wunderground v.1.15,2013-09-05 15:02:00,
2013-09-05 08:07:00,62.9,56.6,30.07,SSE,164,4.0,11.0,80,0.00,,,0.00,Wunderground v.1.15,2013-09-05 15:07:00,
2013-09-05 08:12:00,63.3,57.0,30.07,South,172,11.0,11.0,80,0.00,,,0.00,Wunderground v.1.15,2013-09-05 15:12:00,
2013-09-05 08:17:00,63.6,57.0,30.07,SSE,165,9.0,11.0,79,0.00,,,0.00,Wunderground v.1.15,2013-09-05 15:17:00,
2013-09-05 08:22:00,63.6,56.6,30.07,SSE,167,4.0,11.0,78,0.00,,,0.00,Wunderground v.1.15,2013-09-05 15:22:00,
2013-09-05 08:27:00,63.9,56.5,30.07,SSE,165,5.0,12.0,77,0.00,,,0.00,Wunderground v.1.15,2013-09-05 15:27:00,
2013-09-05 08:32:00,64.2,56.8,30.07,SSE,165,3.0,10.0,77,0.00,,,0.00,Wunderground v.1.15,2013-09-05 15:32:00,
2013-09-05 08:37:00,64.4,56.7,30.07,South,171,0.0,13.0,76,0.00,,,0.00,Wunderground v.1.15,2013-09-05 15:37:00,
2013-09-05 08:42:00,64.7,57.0,30.07,SSE,158,3.0,9.0,76,0.00,,,0.00,Wunderground v.1.15,2013-09-05 15:42:00,
2013-09-05 08:47:00,65.1,57.3,30.08,SE,146,4.0,10.0,76,0.00,,,0.00,Wunderground v.1.15,2013-09-05 15:47:00,
2013-09-05 08:52:00,65.3,57.2,30.08,SSE,147,7.0,11.0,75,0.00,,,0.00,Wunderground v.1.15,2013-09-05 15:52:00,
2013-09-05 08:57:00,65.6,57.5,30.08,SSE,148,5.0,11.0,75,0.00,,,0.00,Wunderground v.1.15,2013-09-05 15:57:00,
2013-09-05 09:02:00,66.0,57.5,30.08,SSE,148,1.0,7.0,74,0.00,,,0.00,Wunderground v.1.15,2013-09-05 16:02:00,
2013-09-05 09:07:00,66.4,57.5,30.08,SSE,148,2.0,10.0,73,0.00,,,0.00,Wunderground v.1.15,2013-09-05 16:07:00,
2013-09-05 09:12:00,66.8,57.9,30.08,SSE,148,5.0,7.0,73,0.00,,,0.00,Wunderground v.1.15,2013-09-05 16:12:00,
2013-09-05 09:17:00,66.6,57.3,30.08,SSE,148,6.0,14.0,72,0.00,,,0.00,Wunderground v.1.15,2013-09-05 16:17:00,
2013-09-05 09:22:00,66.9,57.6,30.08,SSE,148,1.0,11.0,72,0.00,,,0.00,Wunderground v.1.15,2013-09-05 16:22:00,
2013-09-05 09:27:00,67.5,58.2,30.08,SSE,148,6.0,11.0,72,0.00,,,0.00,Wunderground v.1.15,2013-09-05 16:27:00,
2013-09-05 09:32:00,67.6,58.2,30.08,SE,146,3.0,5.0,72,0.00,,,0.00,Wunderground v.1.15,2013-09-05 16:32:00,
2013-09-05 09:37:00,67.8,58.1,30.08,SSE,147,4.0,10.0,71,0.00,,,0.00,Wunderground v.1.15,2013-09-05 16:37:00,
2013-09-05 09:42:00,68.1,57.5,30.08,SSE,149,7.0,9.0,69,0.00,,,0.00,Wunderground v.1.15,2013-09-05 16:42:00,
2013-09-05 09:47:00,68.8,58.6,30.08,SSE,149,10.0,10.0,70,0.00,,,0.00,Wunderground v.1.15,2013-09-05 16:47:00,
2013-09-05 09:52:00,69.4,58.4,30.09,SSE,149,3.0,6.0,68,0.00,,,0.00,Wunderground v.1.15,2013-09-05 16:52:00,
2013-09-05 09:57:00,69.9,58.9,30.09,SE,125,7.0,10.0,68,0.00,,,0.00,Wunderground v.1.15,2013-09-05 16:57:00,
2013-09-05 10:02:00,69.8,58.3,30.09,SE,125,4.0,10.0,67,0.00,,,0.00,Wunderground v.1.15,2013-09-05 17:02:00,
2013-09-05 10:07:00,70.1,58.6,30.09,SE,126,1.0,10.0,67,0.00,,,0.00,Wunderground v.1.15,2013-09-05 17:07:00,
2013-09-05 10:12:00,70.2,58.3,30.09,SSE,148,5.0,12.0,66,0.00,,,0.00,Wunderground v.1.15,2013-09-05 17:12:00,
2013-09-05 10:17:00,70.6,58.7,30.09,SSE,149,2.0,12.0,66,0.00,,,0.00,Wunderground v.1.15,2013-09-05 17:17:00,
2013-09-05 10:22:00,71.2,59.3,30.09,SSE,149,5.0,6.0,66,0.00,,,0.00,Wunderground v.1.15,2013-09-05 17:22:00,
2013-09-05 10:27:00,71.5,58.7,30.09,SSE,149,5.0,10.0,64,0.00,,,0.00,Wunderground v.1.15,2013-09-05 17:27:00,
2013-09-05 10:32:00,72.2,59.3,30.09,SSE,149,3.0,7.0,64,0.00,,,0.00,Wunderground v.1.15,2013-09-05 17:32:00,
2013-09-05 10:37:00,72.8,59.0,30.09,SSE,149,9.0,9.0,62,0.00,,,0.00,Wunderground v.1.15,2013-09-05 17:37:00,
2013-09-05 10:42:00,72.6,59.3,30.09,SSE,151,4.0,10.0,63,0.00,,,0.00,Wunderground v.1.15,2013-09-05 17:42:00,
2013-09-05 10:47:00,72.5,58.7,30.09,South,176,6.0,13.0,62,0.00,,,0.00,Wunderground v.1.15,2013-09-05 17:47:00,
2013-09-05 10:53:00,73.0,58.8,30.09,South,172,1.0,5.0,61,0.00,,,0.00,Wunderground v.1.15,2013-09-05 17:53:00,
2013-09-05 10:58:00,73.1,58.8,30.09,South,181,2.0,11.0,61,0.00,,,0.00,Wunderground v.1.15,2013-09-05 17:58:00,
2013-09-05 11:03:00,73.4,58.7,30.09,SSE,152,0.0,10.0,60,0.00,,,0.00,Wunderground v.1.15,2013-09-05 18:03:00,
2013-09-05 11:08:00,73.4,58.2,30.09,South,173,2.0,10.0,59,0.00,,,0.00,Wunderground v.1.15,2013-09-05 18:08:00,
2013-09-05 11:13:00,73.2,58.0,30.09,South,180,10.0,10.0,59,0.00,,,0.00,Wunderground v.1.15,2013-09-05 18:13:00,
2013-09-05 11:18:00,73.7,58.9,30.09,South,171,6.0,10.0,60,0.00,,,0.00,Wunderground v.1.15,2013-09-05 18:18:00,
2013-09-05 11:23:00,73.9,58.7,30.09,SSE,160,2.0,7.0,59,0.00,,,0.00,Wunderground v.1.15,2013-09-05 18:23:00,
2013-09-05 11:28:00,74.3,58.6,30.09,SSE,160,0.0,10.0,58,0.00,,,0.00,Wunderground v.1.15,2013-09-05 18:28:00,
2013-09-05 11:33:00,74.7,58.5,30.09,SSE,155,0.0,8.0,57,0.00,,,0.00,Wunderground v.1.15,2013-09-05 18:33:00,
2013-09-05 11:38:00,75.1,57.8,30.09,SSE,166,4.0,9.0,55,0.00,,,0.00,Wunderground v.1.15,2013-09-05 18:38:00,
2013-09-05 11:43:00,75.5,58.2,30.09,SSE,155,0.0,5.0,55,0.00,,,0.00,Wunderground v.1.15,2013-09-05 18:43:00,
2013-09-05 11:48:00,76.3,58.4,30.09,SSE,157,1.0,5.0,54,0.00,,,0.00,Wunderground v.1.15,2013-09-05 18:48:00,
2013-09-05 11:53:00,77.0,58.6,30.09,SSE,149,4.0,9.0,53,0.00,,,0.00,Wunderground v.1.15,2013-09-05 18:53:00,
2013-09-05 11:58:00,77.0,58.0,30.08,South,183,5.0,10.0,52,0.00,,,0.00,Wunderground v.1.15,2013-09-05 18:58:00,
2013-09-05 12:03:00,77.3,58.3,30.09,South,184,1.0,9.0,52,0.00,,,0.00,Wunderground v.1.15,2013-09-05 19:03:00,
2013-09-05 12:08:00,77.1,58.1,30.09,South,184,1.0,10.0,52,0.00,,,0.00,Wunderground v.1.15,2013-09-05 19:08:00,
2013-09-05 12:13:00,77.1,58.1,30.09,SSE,155,2.0,4.0,52,0.00,,,0.00,Wunderground v.1.15,2013-09-05 19:13:00,
2013-09-05 12:18:00,77.5,58.5,30.08,SSE,148,3.0,9.0,52,0.00,,,0.00,Wunderground v.1.15,2013-09-05 19:18:00,
2013-09-05 12:23:00,78.0,57.9,30.08,SSE,157,0.0,10.0,50,0.00,,,0.00,Wunderground v.1.15,2013-09-05 19:23:00,
2013-09-05 12:28:00,78.7,58.5,30.08,SE,146,3.0,10.0,50,0.00,,,0.00,Wunderground v.1.15,2013-09-05 19:28:00,
2013-09-05 12:33:00,78.7,58.5,30.08,SSE,164,6.0,12.0,50,0.00,,,0.00,Wunderground v.1.15,2013-09-05 19:33:00,
2013-09-05 12:38:00,78.7,58.5,30.08,SSE,155,2.0,12.0,50,0.00,,,0.00,Wunderground v.1.15,2013-09-05 19:38:00,
2013-09-05 12:43:00,78.8,58.0,30.08,South,176,4.0,10.0,49,0.00,,,0.00,Wunderground v.1.15,2013-09-05 19:43:00,
2013-09-05 12:48:00,79.2,57.8,30.08,South,180,6.0,10.0,48,0.00,,,0.00,Wunderground v.1.15,2013-09-05 19:48:00,
2013-09-05 12:53:00,80.0,58.5,30.08,SSE,166,0.0,5.0,48,0.00,,,0.00,Wunderground v.1.15,2013-09-05 19:53:00,
2013-09-05 12:58:00,80.3,57.6,30.08,SSW,206,5.0,9.0,46,0.00,,,0.00,Wunderground v.1.15,2013-09-05 19:58:00,
2013-09-05 13:03:00,80.3,57.0,30.07,SSW,212,0.0,4.0,45,0.00,,,0.00,Wunderground v.1.15,2013-09-05 20:03:00,
2013-09-05 13:08:00,80.4,57.1,30.07,South,171,6.0,8.0,45,0.00,,,0.00,Wunderground v.1.15,2013-09-05 20:08:00,
2013-09-05 13:13:00,80.8,57.5,30.08,South,183,0.0,11.0,45,0.00,,,0.00,Wunderground v.1.15,2013-09-05 20:13:00,
2013-09-05 13:18:00,81.6,57.6,30.07,SSW,194,2.0,11.0,44,0.00,,,0.00,Wunderground v.1.15,2013-09-05 20:18:00,
2013-09-05 13:23:00,81.6,58.2,30.07,South,188,3.0,4.0,45,0.00,,,0.00,Wunderground v.1.15,2013-09-05 20:23:00,
2013-09-05 13:28:00,82.0,57.9,30.07,South,180,4.0,11.0,44,0.00,,,0.00,Wunderground v.1.15,2013-09-05 20:28:00,
2013-09-05 13:33:00,82.1,58.0,30.07,South,185,1.0,5.0,44,0.00,,,0.00,Wunderground v.1.15,2013-09-05 20:33:00,
2013-09-05 13:38:00,81.9,57.8,30.07,SSW,209,8.0,9.0,44,0.00,,,0.00,Wunderground v.1.15,2013-09-05 20:38:00,
2013-09-05 13:43:00,82.4,57.7,30.07,SSW,207,5.0,5.0,43,0.00,,,0.00,Wunderground v.1.15,2013-09-05 20:43:00,
2013-09-05 13:48:00,81.9,58.5,30.07,SE,141,0.0,10.0,45,0.00,,,0.00,Wunderground v.1.15,2013-09-05 20:48:00,
2013-09-05 13:53:00,82.0,57.3,30.06,SE,140,0.0,6.0,43,0.00,,,0.00,Wunderground v.1.15,2013-09-05 20:53:00,
2013-09-05 13:58:00,82.0,57.3,30.06,SE,139,0.0,6.0,43,0.00,,,0.00,Wunderground v.1.15,2013-09-05 20:58:00,
2013-09-05 14:03:00,82.0,57.3,30.06,SSE,166,3.0,7.0,43,0.00,,,0.00,Wunderground v.1.15,2013-09-05 21:03:00,
2013-09-05 14:08:00,82.3,56.9,30.06,SE,134,5.0,11.0,42,0.00,,,0.00,Wunderground v.1.15,2013-09-05 21:08:00,
2013-09-05 14:13:00,82.2,57.5,30.06,SE,134,1.0,7.0,43,0.00,,,0.00,Wunderground v.1.15,2013-09-05 21:13:00,
2013-09-05 14:18:00,82.1,56.7,30.06,SE,144,0.0,7.0,42,0.00,,,0.00,Wunderground v.1.15,2013-09-05 21:18:00,
2013-09-05 14:23:00,82.8,56.7,30.06,SSW,211,0.0,7.0,41,0.00,,,0.00,Wunderground v.1.15,2013-09-05 21:23:00,
2013-09-05 14:28:00,83.1,57.6,30.05,South,170,5.0,10.0,42,0.00,,,0.00,Wunderground v.1.15,2013-09-05 21:28:00,
2013-09-05 14:33:00,83.4,57.2,30.05,SSE,155,4.0,6.0,41,0.00,,,0.00,Wunderground v.1.15,2013-09-05 21:33:00,
2013-09-05 14:38:00,83.2,57.1,30.05,SE,142,0.0,6.0,41,0.00,,,0.00,Wunderground v.1.15,2013-09-05 21:38:00,
2013-09-05 14:44:00,83.8,56.2,30.05,SW,217,0.0,9.0,39,0.00,,,0.00,Wunderground v.1.15,2013-09-05 21:44:00,
2013-09-05 14:49:00,83.9,56.3,30.05,SSE,156,5.0,9.0,39,0.00,,,0.00,Wunderground v.1.15,2013-09-05 21:49:00,
2013-09-05 14:54:00,83.9,57.0,30.04,SSE,150,0.0,7.0,40,0.00,,,0.00,Wunderground v.1.15,2013-09-05 21:54:00,
2013-09-05 14:59:00,83.8,56.9,30.04,SE,140,3.0,7.0,40,0.00,,,0.00,Wunderground v.1.15,2013-09-05 21:59:00,
2013-09-05 15:04:00,84.3,56.6,30.04,ESE,123,3.0,7.0,39,0.00,,,0.00,Wunderground v.1.15,2013-09-05 22:04:00,
2013-09-05 15:09:00,84.8,55.6,30.04,South,173,9.0,13.0,37,0.00,,,0.00,Wunderground v.1.15,2013-09-05 22:09:00,
2013-09-05 15:14:00,85.0,56.5,30.04,SSE,167,2.0,7.0,38,0.00,,,0.00,Wunderground v.1.15,2013-09-05 22:14:00,
2013-09-05 15:19:00,84.8,56.4,30.03,ESE,117,1.0,7.0,38,0.00,,,0.00,Wunderground v.1.15,2013-09-05 22:19:00,
2013-09-05 15:24:00,85.3,56.1,30.03,SSW,202,1.0,7.0,37,0.00,,,0.00,Wunderground v.1.15,2013-09-05 22:24:00,
2013-09-05 15:30:00,85.8,55.8,30.03,SSW,192,0.0,7.0,36,0.00,,,0.00,Wunderground v.1.15,2013-09-05 22:30:00,
2013-09-05 15:35:00,86.4,53.9,30.03,South,183,7.0,7.0,33,0.00,,,0.00,Wunderground v.1.15,2013-09-05 22:35:00,
2013-09-05 15:40:00,86.8,54.2,30.03,South,180,4.0,4.0,33,0.00,,,0.00,Wunderground v.1.15,2013-09-05 22:40:00,
2013-09-05 15:45:00,86.4,54.7,30.02,South,182,4.0,5.0,34,0.00,,,0.00,Wunderground v.1.15,2013-09-05 22:45:00,
2013-09-05 15:50:00,87.1,55.3,30.02,South,184,0.0,1.0,34,0.00,,,0.00,Wunderground v.1.15,2013-09-05 22:50:00,
2013-09-05 15:55:00,87.1,53.7,30.02,SSE,155,4.0,11.0,32,0.00,,,0.00,Wunderground v.1.15,2013-09-05 22:55:00,
2013-09-05 16:00:00,87.1,52.8,30.02,South,170,3.0,6.0,31,0.00,,,0.00,Wunderground v.1.15,2013-09-05 23:00:00,
2013-09-05 16:05:00,87.2,52.9,30.02,SSW,192,0.0,9.0,31,0.00,,,0.00,Wunderground v.1.15,2013-09-05 23:05:00,
2013-09-05 16:10:00,88.0,53.6,30.02,SSW,194,4.0,5.0,31,0.00,,,0.00,Wunderground v.1.15,2013-09-05 23:10:00,
2013-09-05 16:15:00,88.3,53.8,30.02,South,182,1.0,9.0,31,0.00,,,0.00,Wunderground v.1.15,2013-09-05 23:15:00,
2013-09-05 16:20:00,87.9,53.5,30.01,South,182,2.0,3.0,31,0.00,,,0.00,Wunderground v.1.15,2013-09-05 23:20:00,
2013-09-05 16:25:00,88.0,54.4,30.01,South,182,9.0,9.0,32,0.00,,,0.00,Wunderground v.1.15,2013-09-05 23:25:00,
2013-09-05 16:30:00,88.3,53.8,30.01,South,182,4.0,7.0,31,0.00,,,0.00,Wunderground v.1.15,2013-09-05 23:30:00,
2013-09-05 16:35:00,88.2,52.9,30.01,South,182,6.0,11.0,30,0.00,,,0.00,Wunderground v.1.15,2013-09-05 23:35:00,
2013-09-05 16:40:00,88.0,51.8,30.01,South,182,7.0,9.0,29,0.00,,,0.00,Wunderground v.1.15,2013-09-05 23:40:00,
2013-09-05 16:45:00,88.0,50.8,30.01,South,182,4.0,9.0,28,0.00,,,0.00,Wunderground v.1.15,2013-09-05 23:45:00,
2013-09-05 16:50:00,88.3,52.0,30.01,South,182,6.0,8.0,29,0.00,,,0.00,Wunderground v.1.15,2013-09-05 23:50:00,
2013-09-05 16:56:00,88.4,51.1,30.00,South,182,2.0,8.0,28,0.00,,,0.00,Wunderground v.1.15,2013-09-05 23:56:00,
2013-09-05 17:01:00,88.2,51.9,30.00,South,182,4.0,7.0,29,0.00,,,0.00,Wunderground v.1.15,2013-09-06 00:01:00,
2013-09-05 17:06:00,88.3,52.0,30.00,South,182,9.0,9.0,29,0.00,,,0.00,Wunderground v.1.15,2013-09-06 00:06:00,
2013-09-05 17:11:00,88.4,52.1,30.00,South,182,2.0,5.0,29,0.00,,,0.00,Wunderground v.1.15,2013-09-06 00:11:00,
2013-09-05 17:16:00,88.6,52.3,30.00,South,182,1.0,6.0,29,0.00,,,0.00,Wunderground v.1.15,2013-09-06 00:16:00,
2013-09-05 17:22:00,88.6,51.3,30.00,South,182,4.0,5.0,28,0.00,,,0.00,Wunderground v.1.15,2013-09-06 00:22:00,
2013-09-05 17:27:00,88.5,51.2,30.00,South,182,1.0,7.0,28,0.00,,,0.00,Wunderground v.1.15,2013-09-06 00:27:00,
2013-09-05 17:32:00,88.4,51.1,30.00,SSW,211,7.0,7.0,28,0.00,,,0.00,Wunderground v.1.15,2013-09-06 00:32:00,
2013-09-05 17:37:00,88.2,52.9,30.00,SW,217,7.0,10.0,30,0.00,,,0.00,Wunderground v.1.15,2013-09-06 00:37:00,
2013-09-05 17:42:00,88.1,53.7,30.00,SW,215,5.0,11.0,31,0.00,,,0.00,Wunderground v.1.15,2013-09-06 00:42:00,
2013-09-05 17:47:00,87.7,54.2,30.00,SSW,198,5.0,11.0,32,0.00,,,0.00,Wunderground v.1.15,2013-09-06 00:47:00,
2013-09-05 17:52:00,87.3,54.7,30.00,SSW,208,5.0,10.0,33,0.00,,,0.00,Wunderground v.1.15,2013-09-06 00:52:00,
2013-09-05 17:57:00,86.9,54.3,30.00,South,169,9.0,10.0,33,0.00,,,0.00,Wunderground v.1.15,2013-09-06 00:57:00,
2013-09-05 18:02:00,86.6,54.1,30.00,SSE,163,7.0,11.0,33,0.00,,,0.00,Wunderground v.1.15,2013-09-06 01:02:00,
2013-09-05 18:07:00,86.6,54.9,30.00,SW,215,2.0,11.0,34,0.00,,,0.00,Wunderground v.1.15,2013-09-06 01:07:00,
2013-09-05 18:12:00,86.3,54.6,30.00,South,172,5.0,10.0,34,0.00,,,0.00,Wunderground v.1.15,2013-09-06 01:12:00,
2013-09-05 18:17:00,85.6,54.0,30.00,South,184,5.0,12.0,34,0.00,,,0.00,Wunderground v.1.15,2013-09-06 01:17:00,
2013-09-05 18:22:00,85.5,53.9,30.00,SSW,194,5.0,7.0,34,0.00,,,0.00,Wunderground v.1.15,2013-09-06 01:22:00,
2013-09-05 18:27:00,85.5,53.9,30.00,SSW,196,3.0,8.0,34,0.00,,,0.00,Wunderground v.1.15,2013-09-06 01:27:00,
2013-09-05 18:32:00,85.5,54.7,30.00,SSW,208,3.0,7.0,35,0.00,,,0.00,Wunderground v.1.15,2013-09-06 01:32:00,
2013-09-05 18:37:00,85.0,54.3,30.00,South,188,8.0,10.0,35,0.00,,,0.00,Wunderground v.1.15,2013-09-06 01:37:00,
2013-09-05 18:42:00,84.5,53.8,30.00,SSW,199,5.0,9.0,35,0.00,,,0.00,Wunderground v.1.15,2013-09-06 01:42:00,
2013-09-05 18:47:00,83.9,54.8,30.00,SSW,205,5.0,11.0,37,0.00,,,0.00,Wunderground v.1.15,2013-09-06 01:47:00,
2013-09-05 18:52:00,83.6,55.3,30.00,SSW,200,2.0,9.0,38,0.00,,,0.00,Wunderground v.1.15,2013-09-06 01:52:00,
2013-09-05 18:57:00,83.2,55.7,30.00,SSW,196,6.0,10.0,39,0.00,,,0.00,Wunderground v.1.15,2013-09-06 01:57:00,
2013-09-05 19:02:00,82.6,55.1,30.00,SSW,199,3.0,10.0,39,0.00,,,0.00,Wunderground v.1.15,2013-09-06 02:02:00,
2013-09-05 19:07:00,81.9,55.2,30.00,South,190,5.0,12.0,40,0.00,,,0.00,Wunderground v.1.15,2013-09-06 02:07:00,
2013-09-05 19:12:00,81.4,55.4,30.00,SSW,192,10.0,10.0,41,0.00,,,0.00,Wunderground v.1.15,2013-09-06 02:12:00,
2013-09-05 19:17:00,81.1,55.2,30.00,South,176,7.0,12.0,41,0.00,,,0.00,Wunderground v.1.15,2013-09-06 02:17:00,
2013-09-05 19:22:00,80.6,55.4,30.00,South,184,10.0,10.0,42,0.00,,,0.00,Wunderground v.1.15,2013-09-06 02:22:00,
2013-09-05 19:27:00,80.0,55.5,30.00,SSW,192,7.0,13.0,43,0.00,,,0.00,Wunderground v.1.15,2013-09-06 02:27:00,
2013-09-05 19:32:00,79.5,55.7,30.00,South,184,6.0,10.0,44,0.00,,,0.00,Wunderground v.1.15,2013-09-06 02:32:00,
2013-09-05 19:38:00,79.1,55.3,30.00,South,182,4.0,10.0,44,0.00,,,0.00,Wunderground v.1.15,2013-09-06 02:38:00,
2013-09-05 19:43:00,78.7,55.6,30.00,South,179,8.0,10.0,45,0.00,,,0.00,Wunderground v.1.15,2013-09-06 02:43:00,
2013-09-05 19:48:00,78.2,55.7,30.00,South,174,6.0,10.0,46,0.00,,,0.00,Wunderground v.1.15,2013-09-06 02:48:00,
2013-09-05 19:53:00,77.8,55.4,30.01,South,182,3.0,7.0,46,0.00,,,0.00,Wunderground v.1.15,2013-09-06 02:53:00,
2013-09-05 19:58:00,77.3,55.5,30.01,South,178,4.0,8.0,47,0.00,,,0.00,Wunderground v.1.15,2013-09-06 02:58:00,
2013-09-05 20:03:00,76.7,55.5,30.00,South,177,6.0,9.0,48,0.00,,,0.00,Wunderground v.1.15,2013-09-06 03:03:00,
2013-09-05 20:08:00,76.2,55.6,30.00,South,178,4.0,11.0,49,0.00,,,0.00,Wunderground v.1.15,2013-09-06 03:08:00,
2013-09-05 20:13:00,76.0,55.5,30.01,South,180,4.0,9.0,49,0.00,,,0.00,Wunderground v.1.15,2013-09-06 03:13:00,
2013-09-05 20:18:00,75.7,55.7,30.01,South,180,4.0,9.0,50,0.00,,,0.00,Wunderground v.1.15,2013-09-06 03:18:00,
2013-09-05 20:23:00,75.3,55.4,30.01,South,179,4.0,11.0,50,0.00,,,0.00,Wunderground v.1.15,2013-09-06 03:23:00,
2013-09-05 20:29:00,74.9,55.0,30.01,South,178,3.0,11.0,50,0.00,,,0.00,Wunderground v.1.15,2013-09-06 03:29:00,
2013-09-05 20:34:00,74.4,55.1,30.02,South,177,3.0,7.0,51,0.00,,,0.00,Wunderground v.1.15,2013-09-06 03:34:00,
2013-09-05 20:39:00,73.9,54.6,30.02,South,176,4.0,7.0,51,0.00,,,0.00,Wunderground v.1.15,2013-09-06 03:39:00,
2013-09-05 20:44:00,73.5,54.8,30.02,South,173,4.0,9.0,52,0.00,,,0.00,Wunderground v.1.15,2013-09-06 03:44:00,
2013-09-05 20:49:00,73.1,54.9,30.02,South,175,3.0,9.0,53,0.00,,,0.00,Wunderground v.1.15,2013-09-06 03:49:00,
2013-09-05 20:54:00,72.8,54.7,30.03,South,175,3.0,9.0,53,0.00,,,0.00,Wunderground v.1.15,2013-09-06 03:54:00,
2013-09-05 20:59:00,72.5,54.9,30.02,South,175,6.0,9.0,54,0.00,,,0.00,Wunderground v.1.15,2013-09-06 03:59:00,
2013-09-05 21:01:00,72.4,54.8,30.03,South,175,4.0,5.0,54,0.00,,,0.00,Wunderground v.1.15,2013-09-06 04:01:00,
2013-09-05 21:02:00,72.4,54.8,30.03,South,175,7.0,7.0,54,0.00,,,0.00,Wunderground v.1.15,2013-09-06 04:02:00,
2013-09-05 21:07:00,72.1,55.0,30.03,South,176,1.0,7.0,55,0.00,,,0.00,Wunderground v.1.15,2013-09-06 04:07:00,
2013-09-05 21:12:00,72.0,54.9,30.03,South,178,3.0,8.0,55,0.00,,,0.00,Wunderground v.1.15,2013-09-06 04:12:00,
2013-09-05 21:17:00,71.7,55.2,30.03,South,182,5.0,11.0,56,0.00,,,0.00,Wunderground v.1.15,2013-09-06 04:17:00,
2013-09-05 21:22:00,71.5,55.0,30.03,South,184,4.0,6.0,56,0.00,,,0.00,Wunderground v.1.15,2013-09-06 04:22:00,
2013-09-05 21:27:00,71.2,55.2,30.03,South,184,3.0,6.0,57,0.00,,,0.00,Wunderground v.1.15,2013-09-06 04:27:00,
2013-09-05 21:32:00,70.7,55.2,30.03,South,183,1.0,5.0,58,0.00,,,0.00,Wunderground v.1.15,2013-09-06 04:32:00,
2013-09-05 21:37:00,70.5,55.5,30.03,South,183,3.0,6.0,59,0.00,,,0.00,Wunderground v.1.15,2013-09-06 04:37:00,
2013-09-05 21:42:00,70.3,55.3,30.04,South,183,5.0,6.0,59,0.00,,,0.00,Wunderground v.1.15,2013-09-06 04:42:00,
2013-09-05 21:47:00,70.0,55.5,30.04,South,183,2.0,6.0,60,0.00,,,0.00,Wunderground v.1.15,2013-09-06 04:47:00,
2013-09-05 21:52:00,69.7,55.2,30.04,South,182,1.0,5.0,60,0.00,,,0.00,Wunderground v.1.15,2013-09-06 04:52:00,
2013-09-05 21:57:00,69.5,55.5,30.04,South,182,3.0,5.0,61,0.00,,,0.00,Wunderground v.1.15,2013-09-06 04:57:00,
2013-09-05 22:02:00,69.3,55.3,30.05,South,182,1.0,4.0,61,0.00,,,0.00,Wunderground v.1.15,2013-09-06 05:02:00,
2013-09-05 22:07:00,69.0,55.4,30.05,South,182,3.0,6.0,62,0.00,,,0.00,Wunderground v.1.15,2013-09-06 05:07:00,
2013-09-05 22:12:00,68.9,55.3,30.05,South,182,3.0,6.0,62,0.00,,,0.00,Wunderground v.1.15,2013-09-06 05:12:00,
2013-09-05 22:17:00,68.6,55.5,30.05,South,181,3.0,6.0,63,0.00,,,0.00,Wunderground v.1.15,2013-09-06 05:17:00,
2013-09-05 22:23:00,68.4,55.7,30.05,South,176,2.0,5.0,64,0.00,,,0.00,Wunderground v.1.15,2013-09-06 05:23:00,
2013-09-05 22:28:00,68.2,55.6,30.05,South,174,3.0,6.0,64,0.00,,,0.00,Wunderground v.1.15,2013-09-06 05:28:00,
2013-09-05 22:33:00,68.0,55.8,30.05,South,173,3.0,6.0,65,0.00,,,0.00,Wunderground v.1.15,2013-09-06 05:33:00,
2013-09-05 22:38:00,67.9,55.7,30.05,South,170,1.0,6.0,65,0.00,,,0.00,Wunderground v.1.15,2013-09-06 05:38:00,
2013-09-05 22:43:00,67.8,55.6,30.05,SSE,165,2.0,7.0,65,0.00,,,0.00,Wunderground v.1.15,2013-09-06 05:43:00,
2013-09-05 22:48:00,67.7,55.5,30.05,SSE,165,0.0,7.0,65,0.00,,,0.00,Wunderground v.1.15,2013-09-06 05:48:00,
2013-09-05 22:53:00,67.6,55.8,30.06,SSE,165,0.0,5.0,66,0.00,,,0.00,Wunderground v.1.15,2013-09-06 05:53:00,
2013-09-05 22:58:00,67.6,55.8,30.06,SSE,165,0.0,5.0,66,0.00,,,0.00,Wunderground v.1.15,2013-09-06 05:58:00,
2013-09-05 23:03:00,67.8,56.4,30.06,SSE,164,3.0,3.0,67,0.00,,,0.00,Wunderground v.1.15,2013-09-06 06:03:00,
2013-09-05 23:08:00,67.9,56.1,30.06,SSE,164,0.0,3.0,66,0.00,,,0.00,Wunderground v.1.15,2013-09-06 06:08:00,
2013-09-05 23:13:00,68.0,56.2,30.06,SSE,165,0.0,0.0,66,0.00,,,0.00,Wunderground v.1.15,2013-09-06 06:13:00,
2013-09-05 23:18:00,67.9,56.5,30.06,SSE,161,0.0,5.0,67,0.00,,,0.00,Wunderground v.1.15,2013-09-06 06:18:00,
2013-09-05 23:23:00,67.8,56.4,30.06,SSE,153,0.0,6.0,67,0.00,,,0.00,Wunderground v.1.15,2013-09-06 06:23:00,
2013-09-05 23:28:00,67.6,56.2,30.07,SE,145,0.0,6.0,67,0.00,,,0.00,Wunderground v.1.15,2013-09-06 06:28:00,
2013-09-05 23:33:00,67.4,56.5,30.07,SE,144,0.0,5.0,68,0.00,,,0.00,Wunderground v.1.15,2013-09-06 06:33:00,
2013-09-05 23:38:00,67.4,56.5,30.07,SE,140,5.0,6.0,68,0.00,,,0.00,Wunderground v.1.15,2013-09-06 06:38:00,
2013-09-05 23:43:00,67.3,56.4,30.07,SE,136,2.0,6.0,68,0.00,,,0.00,Wunderground v.1.15,2013-09-06 06:43:00,
2013-09-05 23:48:00,67.2,56.3,30.06,SE,130,1.0,6.0,68,0.00,,,0.00,Wunderground v.1.15,2013-09-06 06:48:00,
2013-09-05 23:53:00,67.1,56.2,30.06,SE,131,0.0,7.0,68,0.00,,,0.00,Wunderground v.1.15,2013-09-06 06:53:00,
2013-09-05 23:58:00,67.0,56.1,30.06,SE,129,2.0,9.0,68,0.00,,,0.00,Wunderground v.1.15,2013-09-06 06:58:00,